This is the latest recevied weather packets stored in our database for station/object WA7CUG. If no packets are shown the sender has not sent any weather packets the latest 10 day(s).
| Time | Temp. | Humidity | Pressure | Rain* | Wind** | Luminosity | Snow |
|---|---|---|---|---|---|---|---|
| 1778224594 | 17.22° C | 50% | 1012.2 hPa | 0 mm | - | 0 W/m² | - |
| 1778224292 | 17.22° C | 50% | 1012.3 hPa | 0 mm | - | 0 W/m² | - |
| 1778223989 | 17.22° C | 49% | 1012.3 hPa | 0 mm | - | 0 W/m² | - |
| 1778223688 | 17.22° C | 49% | 1012.5 hPa | 0 mm | - | 0 W/m² | - |
| 1778223384 | 17.22° C | 49% | 1012.2 hPa | 0 mm | - | 0 W/m² | - |
| 1778223082 | 17.22° C | 49% | 1012.4 hPa | 0 mm | - | 0 W/m² | - |
| 1778222780 | 17.22° C | 50% | 1012.3 hPa | 0 mm | - | 0 W/m² | - |
| 1778222478 | 17.22° C | 51% | 1012.5 hPa | 0 mm | - | 0 W/m² | - |
| 1778222175 | 17.22° C | 52% | 1012.3 hPa | 0 mm | - | 0 W/m² | - |
| 1778221873 | 17.22° C | 50% | 1012.5 hPa | 0 mm | - | 0 W/m² | - |
| 1778221570 | 17.78° C | 50% | 1012.4 hPa | 0 mm | - | 0 W/m² | - |
| 1778221267 | 17.78° C | 49% | 1012.3 hPa | 0 mm | - | 0 W/m² | - |
| 1778220964 | 17.78° C | 50% | 1012.2 hPa | 0 mm | - | 0 W/m² | - |
| 1778220661 | 18.33° C | 48% | 1012.2 hPa | 0 mm | - | 0 W/m² | - |
| 1778220358 | 18.33° C | 48% | 1012.1 hPa | 0 mm | - | 0 W/m² | - |
| 1778220055 | 18.33° C | 47% | 1012.3 hPa | 0 mm | - | 0 W/m² | - |
| 1778219751 | 18.33° C | 49% | 1012 hPa | 0 mm | - | 0 W/m² | - |
| 1778219448 | 18.33° C | 48% | 1012.2 hPa | 0 mm | - | 0 W/m² | - |
| 1778219144 | 18.33° C | 47% | 1012 hPa | 0 mm | - | 0 W/m² | - |
| 1778218842 | 18.89° C | 47% | 1012.1 hPa | 0 mm | - | 0 W/m² | - |
| 1778218538 | 18.89° C | 47% | 1012 hPa | 0 mm | - | 0 W/m² | - |
| 1778218237 | 20.56° C | 44% | 1012 hPa | 0 mm | - | 0 W/m² | - |
| 1778217934 | 21.67° C | 38% | 1011.9 hPa | 0 mm | - | 0 W/m² | - |
| 1778217630 | 21.67° C | 37% | 1012.1 hPa | 0 mm | - | 0 W/m² | - |
| 1778217327 | 22.22° C | 37% | 1012.1 hPa | 0 mm | - | 0 W/m² | - |
* Rain latest hour (hover to see other rain measurements)
** Current wind speed in m/s (hover to see current wind gust speed)